Location: Arcones
(41.1182°N, 3.7238°W)
Time: 18:13:20
(UTC+00:00)

Cosmos 2227 Rocket - Visible Passes

Search period start: 07 March 2026 00:00
Search period end: 17 March 2026 00:00
Orbit: 836 x 845 km, 71.0° (Epoch: 7 March)

Date Brightness Start Highest point End Pass type
(mag) Time Alt. Az. Time Alt. Az. Time Alt. Az.
12 Mar 5.0 22:36:15 10° N 22:36:24 11° N 22:36:24 11° N visible
13 Mar 4.9 22:20:57 10° N 22:21:29 12° N 22:21:29 12° N visible
14 Mar 4.7 22:05:38 10° N 22:06:34 14° N 22:06:34 14° N visible
15 Mar 4.5 21:50:20 10° N 21:51:41 16° N 21:51:41 16° N visible
16 Mar 4.3 21:35:02 10° N 21:36:50 18° N 21:36:50 18° N visible
